Burnsville, North Carolina, United States (28714)
Lat: 35.92N, Lon: 82.3W
Wx Zone: NCZ049
Local Info
Past Weather Observations for Friday, February 27, 2015

NOTE: This archive is for the closest National Weather Service station to Burnsville. Information may differ from the station used for current weather conditions.

Click here for Long-term Archive

Time Weather Temperature Dewpoint Humidity Pressure Winds Precip Visibility
23:54
Clear
25°F / -4°C 18°F / -8°C 74% 30.48 in
(1032 mb)
NNW 6.9 mph
(NNW 11 kph)
- 10SM
22:54
Clear
27°F / -3°C 18°F / -8°C 69% 30.45 in
(1031 mb)
NNW 9.2 mph
(NNW 15 kph)
- 10SM
21:54
Clear
27°F / -3°C 18°F / -8°C 69% 30.45 in
(1031 mb)
NNW 9.2 mph
(NNW 15 kph)
- 10SM
20:54
Clear
28°F / -2°C 16°F / -9°C 59% 30.42 in
(1030 mb)
N 10.4 mph
(N 17 kph)
- 10SM
19:54
Clear
28°F / -2°C 14°F / -10°C 55% 30.39 in
(1029 mb)
NNW 11.5 mph
(NNW 19 kph)
- 10SM
18:54
Clear
30°F / -1°C 14°F / -10°C 51% 30.39 in
(1029 mb)
NNW 15 mph
(NNW 24 kph)
- 10SM
17:54
Clear
34°F / 1°C 12°F / -11°C 41% 30.36 in
(1028 mb)
NNW 16.1 mph
(NNW 26 kph)
- 10SM
16:54
Clear
36°F / 2°C 18°F / -8°C 48% 30.36 in
(1028 mb)
NNW 19.6 mph
(NNW 32 kph)
- 10SM
15:54
Clear
37°F / 3°C 21°F / -6°C 52% 30.33 in
(1027 mb)
N 16.1 mph
(N 26 kph)
- 10SM
14:54
Clear
39°F / 4°C 21°F / -6°C 48% 30.3 in
(1026 mb)
N 12.7 mph
(N 20 kph)
- 10SM
13:54
Clear
37°F / 3°C 21°F / -6°C 52% 30.3 in
(1026 mb)
NNW 11.5 mph
(NNW 19 kph)
- 10SM
12:54
Clear
36°F / 2°C 19°F / -7°C 52% 30.33 in
(1027 mb)
NNW 5.8 mph
(NNW 9 kph)
- 10SM
11:54
Clear
34°F / 1°C 19°F / -7°C 56% 30.36 in
(1028 mb)
N 9.2 mph
(N 15 kph)
- 10SM
10:54
Clear
32°F / 0°C 19°F / -7°C 60% 30.33 in
(1027 mb)
NNW 10.4 mph
(NNW 17 kph)
- 10SM
09:54
Partly Cloudy
30°F / -1°C 19°F / -7°C 64% 30.33 in
(1027 mb)
NNW 11.5 mph
(NNW 19 kph)
- 10SM
09:47
Partly Cloudy
30°F / -1°C 19°F / -7°C 64% 30.33 in
(1027 mb)
NNW 12.7 mph
(NNW 20 kph)
- 10SM
08:54
Overcast
30°F / -1°C 19°F / -7°C 64% 30.3 in
(1026 mb)
NNW 12.7 mph
(NNW 20 kph)
- 10SM
07:54
Overcast
28°F / -2°C 19°F / -7°C 69% 30.27 in
(1025 mb)
N 10.4 mph
(N 17 kph)
- 10SM
06:54
Overcast
28°F / -2°C 21°F / -6°C 74% 30.24 in
(1024 mb)
NNW 10.4 mph
(NNW 17 kph)
- 10SM
06:38
Overcast
28°F / -2°C 21°F / -6°C 74% 30.24 in
(1024 mb)
N 9.2 mph
(N 15 kph)
- 10SM
06:19
Overcast
28°F / -2°C 21°F / -6°C 74% 30.21 in
(1023 mb)
NNW 10.4 mph
(NNW 17 kph)
- 10SM
05:54
Mostly Cloudy
28°F / -2°C 21°F / -6°C 74% 30.21 in
(1023 mb)
NNW 9.2 mph
(NNW 15 kph)
- 10SM
05:14
Mostly Cloudy
28°F / -2°C 21°F / -6°C 74% 30.18 in
(1022 mb)
NNW 8.1 mph
(NNW 13 kph)
- 10SM
04:54
Partly Cloudy
27°F / -3°C 21°F / -6°C 80% 30.18 in
(1022 mb)
NW 9.2 mph
(NW 15 kph)
- 10SM
03:54
Partly Cloudy
27°F / -3°C 21°F / -6°C 80% 30.15 in
(1021 mb)
Calm - 10SM
02:54
Clear
27°F / -3°C 21°F / -6°C 80% 30.15 in
(1021 mb)
Calm - 10SM
01:54
Clear
28°F / -2°C 21°F / -6°C 74% 30.15 in
(1021 mb)
NW 3.5 mph
(NW 6 kph)
- 10SM
00:54
Clear
28°F / -2°C 21°F / -6°C 74% 30.12 in
(1020 mb)
NNW 8.1 mph
(NNW 13 kph)
- 10SM
Time Weather Temperature Dewpoint Humidity Pressure Winds Precip Visibility


Weather for websites

WeatherForYou.com, LLC is not responsible for any damages or problems caused by this service. Current weather conditions are obtained from the closest station including government and personal stations which may have varying degrees of accuracy. Weather forecasts are derived from the NOAA NDFD. Like all things, this site belongs to Jesus Christ... He just trusts me to maintain it. If you have any questions or comments email webmaster@weatherforyou.com

Copyright © 2015, WeatherForYou.com LLC. All rights reserved.